Lid_Strength_Index
5 5 4 4 3 3 3 2 2 2 2 2 1 1 1 0 0 1 0 0 0 0 0 0 -1 -1 -1 -1 -1 -1 -1 -1 -1
5 5 4 4 3 3 3 2 2 2 2 1 1 1 1 1 0 0 0 -0 -0 0 -0 -0 -1 -1 -1 -1 -1 -1 -1 -0 -0
5 5 4 4 3 3 2 2 2 1 1 1 1 1 1 1 0 0 -0 -0 0 -0 -0 -1 -1 -0 -0 -0 -1 -1 -1 -0 -0
5 4 4 4 3 3 2 2 2 2 2 2 1 1 1 1 0 0 -0 0 -0 -0 -0 -0 -0 -0 -0 -0 -0 -1 -0 -0 -0
4 4 4 3 3 3 3 2 2 2 2 2 1 1 1 1 0 0 0 0 -0 -0 -0 -1 -0 -1 -0 -0 -0 -0 -0 0 -0
4 4 4 4 3 3 3 3 2 2 2 1 1 1 1 1 1 1 1 0 -0 -0 -0 -0 -0 -0 -0 -0 -0 -0 -0 -0 0
5 5 4 4 4 3 3 3 2 2 2 1 1 1 1 1 1 1 1 0 0 -0 -0 -0 -0 -0 -0 -0 -0 -0 -0 -0 0
5 5 4 4 4 3 3 3 3 2 2 1 1 1 1 1 1 0 0 0 0 -0 -0 -0 -0 -0 -0 -0 -0 0 -0 -0 -0
6 5 4 4 3 3 3 3 3 2 2 2 1 1 2 1 1 1 1 0 0 0 0 -0 -0 0 0 0 0 2 2 0 0
6 5 5 4 3 3 3 3 2 2 2 1 1 2 1 1 1 1 1 1 1 1 0 -0 0 0 0 1 0 3 3 1 0
6 5 5 4 3 3 2 2 2 2 2 2 2 2 2 1 1 1 1 1 1 0 0 1 1 1 1 1 0 2 3 1 -0
5 4 4 3 3 2 2 2 2 2 2 2 2 2 2 2 1 1 1 1 2 1 1 1 1 1 1 1 1 3 5 3 0
4 3 3 3 3 2 2 2 2 2 2 2 3 2 2 1 1 1 2 2 2 1 1 1 1 1 0 2 1 5 6 4 0
3 3 3 2 2 3 2 2 2 3 2 3 2 1 1 1 1 1 1 1 1 1 1 1 1 1 1 0 1 1 6 6 0
4 4 3 3 3 3 2 2 2 3 3 2 1 1 1 1 1 1 1 1 1 1 1 1 1 2 1 1 0 4 5 7 7
4 3 3 3 3 3 2 2 2 3 2 1 1 1 1 1 1 1 1 1 1 2 1 2 2 2 2 2 1 0 6 6 6
4 3 3 3 3 3 3 2 2 2 1 1 1 2 2 1 1 1 1 1 1 1 2 2 2 2 2 2 1 1 0 0 0
3 3 3 3 3 3 3 2 2 1 1 1 2 2 2 2 2 2 1 1 1 1 0 2 1 1 1 2 2 1 3 3 1
3 3 3 3 3 3 3 2 2 1 1 1 2 2 2 2 2 2 2 2 3 13 11 12 12 11 6 1 9 12 12 13 12
3 3 3 2 3 3 3 2 2 2 1 1 1 2 2 2 3 2 2 2 2 3 6 13 13 14 14 13 10 14 14 13 12